EW0610 Weather Reports


time (UTC)temp
F
wind
direction
speed
knots
gust
knots
rain 1hr
in
rain 24hr
in
rain mn
in
humidity
%
barometer
mb
20260906225436 99 127 5.2 12.2 0.00 0.00 0.00 37 1010.3
20260906224943 99 114 4.3 12.2 0.00 0.00 0.00 37 1010.3
20260906224432 99 116 5.2 8.7 0.00 0.00 0.00 38 1010.3
20260906223938 99 108 4.3 7.8 0.00 0.00 0.00 37 1010.4
20260906223444 99 99 0.0 8.7 0.00 0.00 0.00 37 1010.4
20260906222930 99 119 3.5 8.7 0.00 0.00 0.00 38 1010.5
20260906222433 99 113 3.5 11.3 0.00 0.00 0.00 39 1010.5
20260906222002 99 102 5.2 12.2 0.00 0.00 0.00 38 1010.5
20260906221433 99 87 7.0 12.2 0.00 0.00 0.00 38 1010.5
20260906220934 99 108 3.5 12.2 0.00 0.00 0.00 38 1010.5
20260906220508 99 58 7.0 13.0 0.00 0.00 0.00 38 1010.6
20260906215955 99 70 7.8 13.0 0.00 0.00 0.00 38 1010.6
20260906215442 100 108 7.0 11.3 0.00 0.00 0.00 38 1010.5
20260906214927 99 79 4.3 8.7 0.00 0.00 0.00 38 1010.6
20260906214433 100 79 5.2 8.7 0.00 0.00 0.00 38 1010.8
20260906213937 99 85 0.9 7.0 0.00 0.00 0.00 39 1010.9
20260906213442 97 118 4.3 8.7 0.00 0.00 0.00 40 1010.9
20260906212929 98 102 1.7 11.3 0.00 0.00 0.00 40 1011.0
20260906212438 98 114 6.1 11.3 0.00 0.00 0.00 40 1011.1
20260906211925 97 112 4.3 8.7 0.00 0.00 0.00 40 1011.2
20260906211435 98 113 4.3 13.9 0.00 0.00 0.00 39 1011.2
20260906210946 98 95 4.3 13.9 0.00 0.00 0.00 39 1011.3
20260906210454 98 70 5.2 11.3 0.00 0.00 0.00 40 1011.3
20260906205939 99 65 6.1 13.9 0.00 0.00 0.00 39 1011.5
20260906205427 100 104 9.6 13.9 0.00 0.00 0.00 39 1011.5
20260906204935 100 118 5.2 13.0 0.00 0.00 0.00 39 1011.7
20260906204439 99 73 7.0 13.0 0.00 0.00 0.00 39 1011.6
20260906203944 99 49 5.2 12.2 0.00 0.00 0.00 40 1011.7
20260906203431 99 115 7.0 12.2 0.00 0.00 0.00 40 1011.7
20260906202935 99 53 6.1 13.9 0.00 0.00 0.00 41 1011.7
20260906202458 98 66 8.7 13.9 0.00 0.00 0.00 41 1011.7
20260906201942 99 62 7.0 13.0 0.00 0.00 0.00 40 1011.8
20260906201429 99 76 3.5 12.2 0.00 0.00 0.00 39 1011.8
20260906200938 99 97 7.8 12.2 0.00 0.00 0.00 39 1011.9
20260906200426 98 119 3.5 13.0 0.00 0.00 0.00 40 1012.1
20260906195933 97 106 7.0 13.9 0.00 0.00 0.00 40 1012.0
20260906195437 97 110 7.0 13.9 0.00 0.00 0.00 40 1012.0
20260906194939 98 89 3.5 13.0 0.00 0.00 0.00 41 1012.0
20260906194441 98 102 3.5 9.6 0.00 0.00 0.00 41 1012.1
20260906193930 99 126 5.2 10.4 0.00 0.00 0.00 41 1012.1
20260906193435 98 118 4.3 12.2 0.00 0.00 0.00 41 1012.3
20260906192944 98 101 8.7 12.2 0.00 0.00 0.00 41 1012.3
20260906192430 98 120 5.2 13.0 0.00 0.00 0.00 41 1012.3
20260906191935 99 107 5.2 13.0 0.00 0.00 0.00 42 1012.5
20260906191438 98 97 7.0 12.2 0.00 0.00 0.00 42 1012.6
20260906190944 97 104 1.7 13.0 0.00 0.00 0.00 43 1012.5
20260906190433 98 89 6.1 13.9 0.00 0.00 0.00 42 1012.6
20260906185941 98 85 7.8 13.9 0.00 0.00 0.00 41 1012.6
20260906185426 98 135 3.5 13.0 0.00 0.00 0.00 42 1012.6
20260906184958 98 185 6.1 13.0 0.00 0.00 0.00 42 1012.6
20260906184446 98 131 8.7 13.0 0.00 0.00 0.00 42 1012.7
20260906183928 98 108 5.2 8.7 0.00 0.00 0.00 42 1012.7
20260906183428 98 115 4.3 10.4 0.00 0.00 0.00 43 1012.8
20260906183006 97 112 6.1 10.4 0.00 0.00 0.00 42 1012.8
20260906182430 97 104 6.1 10.4 0.00 0.00 0.00 42 1012.9
20260906181934 97 124 6.1 9.6 0.00 0.00 0.00 44 1013.0
20260906181459 97 106 6.1 9.6 0.00 0.00 0.00 45 1013.1
20260906180940 96 101 4.3 10.4 0.00 0.00 0.00 46 1013.2
20260906180444 96 99 6.1 10.4 0.00 0.00 0.00 46 1013.3
20260906175930 96 110 1.7 10.4 0.00 0.00 0.00 46 1013.3
20260906175502 96 86 7.0 10.4 0.00 0.00 0.00 46 1013.3
20260906174948 96 148 3.5 11.3 0.00 0.00 0.00 46 1013.4
20260906174432 96 108 6.1 11.3 0.00 0.00 0.00 45 1013.6
20260906173941 96 188 4.3 10.4 0.00 0.00 0.00 46 1013.6
20260906173427 95 98 4.3 9.6 0.00 0.00 0.00 47 1013.8
20260906172938 95 114 4.3 11.3 0.00 0.00 0.00 46 1013.9
20260906172440 95 101 6.1 11.3 0.00 0.00 0.00 48 1013.9
20260906171945 95 110 7.8 11.3 0.00 0.00 0.00 47 1013.9
20260906171430 95 120 2.6 11.3 0.00 0.00 0.00 49 1013.9
20260906170940 95 110 4.3 11.3 0.00 0.00 0.00 50 1013.9
20260906170504 94 73 7.0 11.3 0.00 0.00 0.00 50 1014.0
20260906165947 94 100 5.2 10.4 0.00 0.00 0.00 50 1014.1
20260906165437 94 77 5.2 10.4 0.00 0.00 0.00 51 1014.2
20260906164925 94 112 3.5 9.6 0.00 0.00 0.00 50 1014.2
20260906164432 94 109 2.6 9.6 0.00 0.00 0.00 51 1014.3
20260906163956 94 124 4.3 12.2 0.00 0.00 0.00 52 1014.4
20260906163441 94 108 6.1 12.2 0.00 0.00 0.00 51 1014.4
20260906162940 93 164 2.6 9.6 0.00 0.00 0.00 52 1014.4
20260906162426 93 63 6.1 9.6 0.00 0.00 0.00 52 1014.3
20260906161933 93 112 1.7 8.7 0.00 0.00 0.00 53 1014.3
20260906161438 93 113 5.2 10.4 0.00 0.00 0.00 53 1014.4
20260906160945 92 85 6.1 10.4 0.00 0.00 0.00 53 1014.3
20260906160428 93 96 5.2 8.7 0.00 0.00 0.00 52 1014.3
20260906155938 93 79 3.5 7.8 0.00 0.00 0.00 53 1014.3
20260906155440 92 77 3.5 7.0 0.00 0.00 0.00 54 1014.3
20260906154943 92 101 4.3 8.7 0.00 0.00 0.00 54 1014.3
20260906154449 91 106 2.6 8.7 0.00 0.00 0.00 57 1014.3
20260906153955 91 109 1.7 6.1 0.00 0.00 0.00 58 1014.3
20260906153438 90 108 3.5 6.1 0.00 0.00 0.00 59 1014.3
20260906152943 90 118 3.5 5.2 0.00 0.00 0.00 59 1014.2
20260906152429 90 108 4.3 6.1 0.00 0.00 0.00 59 1014.1
20260906151933 90 117 3.5 6.1 0.00 0.00 0.00 59 1014.1
20260906151443 90 74 2.6 6.1 0.00 0.00 0.00 60 1013.9
20260906150928 89 102 2.6 5.2 0.00 0.00 0.00 60 1013.9
20260906150502 89 111 3.5 5.2 0.00 0.00 0.00 63 1013.8
20260906145949 88 104 2.6 5.2 0.00 0.00 0.00 63 1013.8
20260906145428 87 109 3.5 6.1 0.00 0.00 0.00 64 1013.8
20260906144928 87 106 3.5 6.1 0.00 0.00 0.00 65 1013.7
20260906144435 87 121 2.6 4.3 0.00 0.00 0.00 65 1013.8
20260906143941 87 112 1.7 3.5 0.00 0.00 0.00 65 1013.8
20260906143428 86 112 1.7 6.1 0.00 0.00 0.00 67 1013.8
20260906142940 85 114 0.9 6.1 0.00 0.00 0.00 67 1013.9
20260906142449 85 110 3.5 5.2 0.00 0.00 0.00 67 1013.8
20260906141936 85 104 2.6 4.3 0.00 0.00 0.00 68 1013.8
20260906141503 85 103 2.6 4.3 0.00 0.00 0.00 68 1013.7
20260906140932 84 112 0.9 4.3 0.00 0.00 0.00 69 1013.7
20260906140440 84 114 2.6 4.3 0.00 0.00 0.00 70 1013.8
20260906135944 83 117 2.6 3.5 0.00 0.00 0.00 71 1013.8
20260906135428 83 117 1.7 3.5 0.00 0.00 0.00 71 1013.9
20260906134932 83 118 1.7 3.5 0.00 0.00 0.00 72 1013.9
20260906134441 83 118 1.7 3.5 0.00 0.00 0.00 72 1014.0
20260906133941 82 119 0.9 3.5 0.00 0.00 0.00 72 1014.0
20260906133427 82 120 2.6 4.3 0.00 0.00 0.00 72 1014.1
20260906132933 82 121 2.6 4.3 0.00 0.00 0.00 73 1014.0
20260906132506 82 123 1.7 4.3 0.00 0.00 0.00 73 1013.9
20260906131931 81 124 1.7 4.3 0.00 0.00 0.00 73 1014.0
20260906131436 81 123 1.7 4.3 0.00 0.00 0.00 74 1013.9
20260906130941 81 125 2.6 4.3 0.00 0.00 0.00 74 1013.9
20260906130445 81 123 2.6 4.3 0.00 0.00 0.00 75 1013.8
20260906125953 81 124 3.5 4.3 0.00 0.00 0.00 75 1013.8
20260906125437 80 127 1.7 3.5 0.00 0.00 0.00 76 1013.8
20260906124926 80 129 1.7 3.5 0.00 0.00 0.00 76 1013.7
20260906124453 80 129 0.9 3.5 0.00 0.00 0.00 77 1013.6
20260906124000 79 129 1.7 2.6 0.00 0.00 0.00 77 1013.6
20260906123430 79 130 1.7 2.6 0.00 0.00 0.00 77 1013.6
20260906122930 79 130 1.7 3.5 0.00 0.00 0.00 78 1013.5
20260906122437 79 130 2.6 3.5 0.00 0.00 0.00 78 1013.5
20260906121943 79 131 2.6 3.5 0.00 0.00 0.00 78 1013.5
20260906121429 79 133 1.7 3.5 0.00 0.00 0.00 78 1013.4
20260906120928 79 133 0.9 2.6 0.00 0.00 0.00 78 1013.3
20260906120458 79 133 1.7 4.3 0.00 0.00 0.00 78 1013.2
20260906115942 79 133 2.6 4.3 0.00 0.00 0.00 78 1013.2
20260906115448 79 136 2.6 4.3 0.00 0.00 0.00 78 1013.2
20260906114937 79 138 2.6 3.5 0.00 0.00 0.00 78 1013.2
20260906114440 79 138 1.7 3.5 0.00 0.00 0.00 77 1013.2
20260906113927 79 139 0.9 2.6 0.00 0.00 0.00 77 1013.0
20260906113454 79 139 1.7 3.5 0.00 0.00 0.00 77 1013.0
20260906112938 79 139 1.7 3.5 0.00 0.00 0.00 77 1013.0
20260906112425 80 139 2.6 3.5 0.00 0.00 0.00 76 1013.0
20260906112000 80 140 2.6 3.5 0.00 0.00 0.00 76 1012.8
20260906111446 80 141 2.6 3.5 0.00 0.00 0.00 76 1012.8
20260906110935 80 148 2.6 4.3 0.00 0.00 0.00 75 1012.9
20260906110440 80 153 2.6 4.3 0.00 0.00 0.00 75 1012.9
20260906105958 80 158 2.6 3.5 0.00 0.00 0.00 75 1012.8
20260906105448 80 162 1.7 3.5 0.00 0.00 0.00 74 1012.8
20260906104939 80 162 1.7 2.6 0.00 0.00 0.00 74 1012.7
20260906104446 80 163 0.9 1.7 0.00 0.00 0.00 75 1012.7
20260906103959 81 164 0.9 0.9 0.00 0.00 0.00 74 1012.6
20260906103443 81 164 0.0 1.7 0.00 0.00 0.00 74 1012.6
20260906102934 81 164 0.0 2.6 0.00 0.00 0.00 73 1012.5
20260906102434 81 164 1.7 2.6 0.00 0.00 0.00 73 1012.5
20260906101942 81 164 1.7 2.6 0.00 0.00 0.00 72 1012.6
20260906101447 82 164 1.7 2.6 0.00 0.00 0.00 72 1012.6
20260906100931 82 164 0.0 2.6 0.00 0.00 0.00 71 1012.5
20260906100505 82 164 0.0 3.5 0.00 0.00 0.00 71 1012.5
20260906095928 82 164 0.9 3.5 0.00 0.00 0.00 71 1012.5
20260906095457 82 164 1.7 2.6 0.00 0.00 0.00 70 1012.3
20260906094924 82 162 1.7 2.6 0.00 0.00 0.00 70 1012.3
20260906094437 82 158 1.7 2.6 0.00 0.00 0.00 70 1012.3
20260906093944 82 158 1.7 2.6 0.00 0.00 0.00 70 1012.3
20260906093449 82 158 0.9 1.7 0.00 0.00 0.00 70 1012.2
20260906092952 82 158 0.9 1.7 0.00 0.00 0.00 70 1012.1
20260906092444 83 158 0.0 3.5 0.00 0.00 0.00 70 1012.2
20260906091950 83 158 1.7 5.2 0.00 0.00 0.00 69 1012.2
20260906091456 83 158 1.7 5.2 0.00 0.00 0.00 69 1012.0
20260906090944 83 153 1.7 3.5 0.00 0.00 0.00 69 1012.0
20260906090433 83 148 0.9 5.2 0.00 0.00 0.00 69 1012.0
20260906085940 83 148 2.6 5.2 0.00 0.00 0.00 69 1011.9
20260906085427 83 185 1.7 4.3 0.00 0.00 0.00 69 1011.9
20260906084940 83 184 1.7 4.3 0.00 0.00 0.00 69 1012.0
20260906084430 83 193 1.7 6.1 0.00 0.00 0.00 69 1012.0
20260906084003 83 153 3.5 6.1 0.00 0.00 0.00 69 1011.9
20260906083428 83 164 3.5 7.8 0.00 0.00 0.00 69 1012.0
20260906082943 83 193 3.5 7.8 0.00 0.00 0.00 69 1011.9
20260906082453 83 202 3.5 5.2 0.00 0.00 0.00 69 1011.9
20260906081940 83 208 3.5 5.2 0.00 0.00 0.00 69 1011.9
20260906081430 83 210 2.6 6.1 0.00 0.00 0.00 69 1011.8
20260906080934 83 210 1.7 4.3 0.00 0.00 0.00 69 1011.7
20260906080437 84 209 2.6 4.3 0.00 0.00 0.00 68 1011.8
20260906075946 84 210 1.7 6.1 0.00 0.00 0.00 68 1011.8
20260906075435 84 207 3.5 6.1 0.00 0.00 0.00 68 1012.0
20260906074937 84 201 2.6 7.0 0.00 0.00 0.00 67 1012.0
20260906074443 84 198 4.3 7.0 0.00 0.00 0.00 67 1012.1
20260906073946 84 189 2.6 7.8 0.00 0.00 0.00 67 1012.2
20260906073429 84 197 4.3 7.8 0.00 0.00 0.00 67 1012.3
20260906072932 85 187 3.5 7.8 0.00 0.00 0.00 67 1012.2
20260906072438 85 181 4.3 7.8 0.00 0.00 0.00 67 1012.2
20260906071950 85 125 2.6 4.3 0.00 0.00 0.00 67 1012.3
20260906071431 85 193 1.7 6.1 0.00 0.00 0.00 67 1012.2
20260906070944 85 189 2.6 6.1 0.00 0.00 0.00 67 1012.2
20260906070428 85 204 3.5 6.1 0.00 0.00 0.00 67 1012.1
20260906065955 85 181 3.5 7.0 0.00 0.00 0.00 67 1012.2
20260906065435 85 187 4.3 7.0 0.00 0.00 0.00 67 1012.3
20260906064941 85 206 2.6 4.3 0.00 0.00 0.00 67 1012.2
20260906064449 85 208 2.6 4.3 0.00 0.00 0.00 67 1012.3
20260906063936 85 207 2.6 4.3 0.00 0.00 0.00 67 1012.4
20260906063428 85 207 1.7 5.2 0.00 0.00 0.00 67 1012.4
20260906062957 85 203 3.5 5.2 0.00 0.00 0.00 67 1012.4
20260906062505 85 206 3.5 5.2 0.00 0.00 0.00 66 1012.3
20260906061932 85 212 1.7 5.2 0.00 0.00 0.00 66 1012.3
20260906061445 85 211 2.6 5.2 0.00 0.00 0.00 66 1012.3
20260906060927 85 220 1.7 3.5 0.00 0.00 0.00 66 1012.3
20260906060434 85 220 1.7 3.5 0.00 0.00 0.00 66 1012.4
20260906055943 85 220 1.7 3.5 0.00 0.00 0.00 65 1012.5
20260906055435 85 221 0.9 2.6 0.00 0.00 0.00 65 1012.5
20260906054941 85 221 0.9 3.5 0.00 0.00 0.00 65 1012.4
20260906054444 86 220 2.6 3.5 0.00 0.00 0.00 64 1012.5
20260906053928 86 220 2.6 4.3 0.00 0.00 0.00 64 1012.4
20260906053452 86 220 2.6 5.2 0.00 0.00 0.00 64 1012.4
20260906052936 86 178 2.6 6.1 0.00 0.00 0.00 64 1012.4
20260906052504 87 158 2.6 6.1 0.00 0.00 0.00 63 1012.4
20260906051953 87 185 1.7 5.2 0.00 0.00 0.00 63 1012.5
20260906051445 87 185 1.7 6.1 0.00 0.00 0.00 63 1012.5
20260906050951 87 199 2.6 9.6 0.00 0.00 0.00 62 1012.4
20260906050438 87 153 4.3 9.6 0.00 0.00 0.00 62 1012.4
20260906045956 87 153 5.2 8.7 0.00 0.00 0.00 61 1012.4
20260906045438 87 158 4.3 8.7 0.00 0.00 0.00 61 1012.5
20260906044929 87 148 4.3 6.1 0.00 0.00 0.00 61 1012.4
20260906044435 87 148 3.5 4.3 0.00 0.00 0.00 61 1012.3
20260906043942 87 148 1.7 4.3 0.00 0.00 0.00 61 1012.4
20260906043430 88 148 2.6 5.2 0.00 0.00 0.00 60 1012.3
20260906042945 88 148 2.6 5.2 0.00 0.00 0.00 60 1012.3
20260906042450 88 140 2.6 6.1 0.00 0.00 0.00 60 1012.2
20260906041934 88 148 3.5 8.7 0.00 0.00 0.00 59 1012.2
20260906041442 88 153 4.3 8.7 0.00 0.00 0.00 59 1012.1
20260906040929 88 174 4.3 8.7 0.00 0.00 0.00 59 1012.2
20260906040438 88 143 4.3 8.7 0.00 0.00 0.00 59 1012.1
20260906035943 88 164 4.3 8.7 0.00 0.00 0.00 59 1012.1
20260906035432 88 136 2.6 8.7 0.00 0.00 0.00 58 1012.2
20260906034943 88 148 4.3 8.7 0.00 0.00 0.00 58 1012.3
20260906034443 89 167 3.5 9.6 0.00 0.00 0.00 58 1012.3
20260906033931 89 158 6.1 9.6 0.00 0.00 0.00 57 1012.3
20260906033434 89 174 4.3 9.6 0.00 0.00 0.00 57 1012.3
20260906032943 89 162 4.3 9.6 0.00 0.00 0.00 57 1012.3
20260906032431 89 127 3.5 9.6 0.00 0.00 0.00 57 1012.3
20260906031940 89 129 6.1 10.4 0.00 0.00 0.00 56 1012.3
20260906031446 89 158 4.3 10.4 0.00 0.00 0.00 56 1012.2
20260906030949 89 130 4.3 8.7 0.00 0.00 0.00 55 1012.2
20260906030435 89 133 6.1 11.3 0.00 0.00 0.00 55 1012.2
20260906025941 90 117 5.2 11.3 0.00 0.00 0.00 54 1012.4
20260906025428 90 114 8.7 11.3 0.00 0.00 0.00 54 1012.3
20260906024935 90 114 4.3 9.6 0.00 0.00 0.00 54 1012.2
20260906024442 90 142 5.2 11.3 0.00 0.00 0.00 54 1012.0
20260906023931 90 119 5.2 11.3 0.00 0.00 0.00 54 1012.0
20260906023440 90 122 3.5 9.6 0.00 0.00 0.00 54 1011.9
20260906022928 90 118 4.3 8.7 0.00 0.00 0.00 54 1011.7
20260906022433 90 148 5.2 8.7 0.00 0.00 0.00 53 1011.7
20260906021942 91 116 5.2 9.6 0.00 0.00 0.00 53 1011.6
20260906021428 91 116 6.1 9.6 0.00 0.00 0.00 52 1011.7
20260906020941 91 110 3.5 13.0 0.00 0.00 0.00 52 1011.5
20260906020430 92 130 8.7 13.0 0.00 0.00 0.00 51 1011.5
20260906015935 92 124 6.1 10.4 0.00 0.00 0.00 50 1011.4
20260906015453 92 131 6.1 12.2 0.00 0.00 0.00 50 1011.3
20260906014937 93 136 7.8 12.2 0.00 0.00 0.00 49 1011.3
20260906014442 93 105 7.0 13.9 0.00 0.00 0.00 48 1011.1
20260906013945 93 129 6.1 13.9 0.00 0.00 0.00 46 1011.1
20260906013430 93 99 8.7 13.0 0.00 0.00 0.00 44 1011.0
20260906012935 94 106 2.6 4.3 0.00 0.00 0.00 43 1010.8
20260906012438 94 107 2.6 3.5 0.00 0.00 0.00 43 1010.7
20260906012009 94 106 2.6 3.5 0.00 0.00 0.00 42 1010.6
20260906011432 94 106 2.6 4.3 0.00 0.00 0.00 42 1010.5
20260906010944 95 106 3.5 6.1 0.00 0.00 0.00 41 1010.5
20260906010424 95 103 1.7 6.1 0.00 0.00 0.00 41 1010.5
20260906005935 95 104 2.6 6.1 0.00 0.00 0.00 41 1010.4
20260906005510 95 102 3.5 6.1 0.00 0.00 0.00 40 1010.4
20260906005000 96 93 4.3 6.1 0.00 0.00 0.00 40 1010.4
20260906004444 96 114 4.3 8.7 0.00 0.00 0.00 39 1010.4
20260906003929 96 108 2.6 8.7 0.00 0.00 0.00 39 1010.4
20260906003437 96 90 5.2 8.7 0.00 0.00 0.00 39 1010.4
20260906002944 96 100 3.5 7.0 0.00 0.00 0.00 39 1010.4
20260906002429 97 102 3.5 7.8 0.00 0.00 0.00 38 1010.4
20260906001955 97 62 5.2 8.7 0.00 0.00 0.00 38 1010.4
20260906001426 97 93 2.6 8.7 0.00 0.00 0.00 38 1010.4
20260906000930 97 102 4.3 7.8 0.00 0.00 0.00 38 1010.3
20260906000440 98 93 3.5 9.6 0.00 0.00 0.00 37 1010.2
20260905235929 98 55 6.1 9.6 0.00 0.00 0.00 37 1010.2
20260905235439 98 117 1.7 8.7 0.00 0.00 0.00 38 1010.2
20260905234931 98 109 4.3 8.7 0.00 0.00 0.00 38 1010.1
20260905234439 98 91 2.6 7.0 0.00 0.00 0.00 37 1010.1
20260905233946 98 115 3.5 6.1 0.00 0.00 0.00 37 1010.2
20260905233435 98 93 3.5 8.7 0.00 0.00 0.00 37 1010.2
20260905232938 98 101 3.5 8.7 0.00 0.00 0.00 38 1010.2
20260905232445 98 112 2.6 8.7 0.00 0.00 0.00 38 1010.2
20260905231957 98 69 1.7 8.7 0.00 0.00 0.00 38 1010.1
20260905231442 99 113 5.2 10.4 0.00 0.00 0.00 37 1010.2
20260905230944 98 110 7.0 11.3 0.00 0.00 0.00 38 1010.1
20260905230428 98 91 7.8 11.3 0.00 0.00 0.00 38 1010.1
20260905225949 99 106 3.5 8.7 0.00 0.00 0.00 37 1010.1